Powrót do katalogu

COSMOS 1823 DEB

AktywnyLEO
NORAD 39827·DEBRIS·🇷🇺 Russia

Wystrzelony Feb 20, 1987 z Plesetsk Cosmodrome

Loading…

Następne Przeloty (najbliższe 24 godziny)

TLE

ŚwieżeSource: Space-Track

Epoka: Sep 13, 2026, 08:58 UTC

1 39827U 87020FB  26256.37420492  .00000004  00000-0  15270-3 0  9990
2 39827  73.5949 270.7175 0027002 114.4473 245.9392 12.41969707557649

Śledź COSMOS 1823 DEB w czasie rzeczywistym z AllMySat

Download on the App Store